Regional Weather Roundup
Issued by NWS Charleston, SC

Current Version | Previous Version | Graphics & Text | Print | Product List | Glossary On
Versions: 1 2 3 4 5 6 7 8 9 10 11 12 13 14 15 16 17 18 19 20 21 22 23 24 25 26 27 28 29 30 31 32 33 34 35 36 37 38 39 40 41 42 43 44 45 46 47 48 49 50
000
ASUS42 KCHS 281113
RWRCHS

REGIONAL WEATHER ROUNDUP
NATIONAL WEATHER SERVICE CHARLESTON SC
700 AM EDT THU JUL 28 2016

NOTE: "FAIR" INDICATES FEW OR NO CLOUDS BELOW 12,000 FEET WITH NO
SIGNIFICANT WEATHER AND/OR OBSTRUCTIONS TO VISIBILITY.

NOT ALL STATIONS ARE QUALITY CONTROLLED. USE DATA WITH CAUTION...
ESPECIALLY DEWPOINT OBSERVATIONS.

SCZ027-030-031-034>040-042>050-281200-
...SOUTHEAST SOUTH CAROLINA...

CITY           SKY/WX    TMP DP  RH WIND       PRES   REMARKS
N CHARLESTON   PTCLDY    81  72  74 W8        30.00R
WATERFRONT PRK   N/A     83  75  76 VRB3      29.97S HX  90
MOUNT PLEASANT FAIR      82  73  74 CALM      30.00R
JOHNS ISLAND   FAIR      82  73  74 W6        30.00S
PINOPOLIS        N/A     81  75  83 SW10      29.92R
MONCKS CORNER  FAIR      75  72  88 SW3       29.99S
SUMMERVILLE    FAIR      77  77 100 CALM      30.01R
BEAUFORT MCAS  PTCLDY    79  71  76 W6        30.02R
BEAUFORT ARPT  FAIR      81  72  74 W5        30.01S
HILTON HEAD IS CLEAR     81  72  74 SW7       30.03R
WALTERBORO     SUNNY     79  73  83 W6        30.01S
ALLENDALE      FAIR      77  72  83 CALM      30.01R

...SOUTHERN MIDLANDS AND PEE DEE...

CITY           SKY/WX    TMP DP  RH WIND       PRES   REMARKS
GEORGETOWN     FAIR      79  75  89 SW3       29.99
KINGSTREE      FAIR      77  70  78 CALM      29.98R
ORANGEBURG     CLEAR     76  72  87 S5        30.00S
BARNWELL       NOT AVBL
AIKEN          FAIR      73  70  88 SW6       30.05R
MANNING        FAIR      77  72  83 SW3       29.99R
COLUMBIA       PTCLDY    77  70  79 W5        29.98R
SUMTER         CLEAR     78  70  74 W7        29.96R
FLORENCE       CLEAR     80  71  74 W6        29.97R
MYRTLE BEACH   CLEAR     81  70  69 W8        29.98S
N MYRTLE BEACH CLEAR     81  77  88 W5        29.96S

$$

GAZ063-065-086>088-099>101-113>116-118-119-134>141-150-281200-
...SOUTHEAST GEORGIA...

CITY           SKY/WX    TMP DP  RH WIND       PRES   REMARKS
SAVANNAH ARPT  CLEAR     77  70  79 W5        30.03R
HUNTER AAF     CLEAR     78  74  89 SW6       30.00S
FORT STEWART   CLEAR     78  71  78 W7        30.02R
STATESBORO     CLEAR     78  73  84 W3        30.03S
SYLVANIA       NOT AVBL
CLAXTON        FAIR      74  73  99 CALM      30.04R

...CSRA...CENTRAL AND FAR SOUTHEAST GEORGIA...

CITY           SKY/WX    TMP DP  RH WIND       PRES   REMARKS
THOMSON        NOT AVBL
AUGUSTA-BUSH   CLEAR     76  71  85 W3        30.01R
AUGUSTA-DANIEL CLEAR     81  69  67 VRB3      30.03R
SWAINSBORO     FAIR      75  70  83 W3        30.04S
VIDALIA        CLEAR     77  70  78 CALM      30.05R
EASTMAN        FAIR      76  74  95 CALM      30.07S
HAZLEHURST     FAIR      77  75  93 CALM      30.04S
ALMA           CLEAR     74  73  97 CALM      30.05R
WAYCROSS       CLEAR     77  77  99 SW3       30.05S
JESUP          FAIR      73  73 100 CALM      30.05R
BAXLEY         FAIR      75  75 100 CALM      30.04S
BRUNSWICK      CLEAR     79  77  94 W3        30.05S
SAINT SIMONS   CLEAR     80  74  81 W5        30.04S

$$

SCZ027-028-034-036>038-045-046-048>050-GAZ119-141-281200-
...LAKE AND SUPPLEMENTAL COASTAL OBSERVATIONS...

STATION/POSITION TIME  TEMP    WIND        PRES    WAVE   SWELL
                       AIR SEA DIR/SP/G            HT/PER HT/PER/DIR
                 (UTC) (F)     (DEG/KT/KT) (MB)    (FT/S) (FT/S/D)
WINYAH BAY       NOT AVBL
LAKE MURRAY      1000   83     270/  8/ 12 1014.6R
ACE BASIN NERRS  NOT AVBL
FORT PULASKI     1000   82 87  250/  6/  8 1016.9R
SAPELO ISLAND    1000   82     240/  7     1017.0S

$$

ANZ835-935-AMZ111-154-330-350-352-354-370-450-454-472-281200-
...C-MAN AND BUOY OBSERVATIONS...

STATION/POSITION TIME  TEMP    WIND        PRES    WAVE   SWELL
                       AIR SEA DIR/SP/G            HT/PER HT/PER/DIR
                 (UTC) (F)     (DEG/KT/KT) (MB)    (FT/S) (FT/S/D)
BUOY 41004       1050   86 86  250/ 16/ 19 1015.0R   4/ 5   2/160/ 8
BUOY 41008       1050   85 86  260/ 14/ 16 1016.7R   3/ 5
FOLLY BEACH CMAN 1100   81     260/  5/  7 1015.9R
CAPERS NEARSHORE 1008   84 83  270/ 10/ 12 1015.3R
FRIPP NEARSHORE  1008   85 87  260/ 14/ 17 1015.5S


STATION/POSITION TIME  TEMP    WIND        PRES    WAVE   SWELL
                       AIR SEA DIR/SP/G            HT/PER HT/PER/DIR
                 (UTC) (F)     (DEG/KT/KT) (MB)    (FT/S) (FT/S/D)
5E ST. MARYS GA  1101      86                N/A     2/ 4
FRYING PAN BUOY  1000   85 85  250/ 19/ 21 1014.4R
BUOY 41025       1050   84 84  230/  8/  8 1014.2R   2/ 6   2/220/ 6
CAPE LOOKOUT NC  1000   82     230/  6/  8 1013.5R
BUOY 41002       1050   84 84  270/ 14/ 17 1016.3R   3/ 6   2/170/ 7
BUOY 41010       1020   85 86  230/  8/ 10 1017.7R
ST AUGUSTINE FL  1100   78 84  220/  3/  4 1018.6R


$$




USA.gov is the U.S. government's official web portal to all federal, state and local government web resources and services.